"Pseudo-MPEC" for A107B9F

Created 2018 Jul 16 2:18:07 UT using Find_Orb

Click here for an explanation of pseudo-MPECs

 
 Astrometry: 
     A107B9F  C2018 07 12i0Astrometry;979N,e!@cRo7l\DTNg(we^p^-EW[hhP[Yi0?Te_T08
     A107B9F  C2018 07 12q=.cdjasN!p:_@Rl?/M.wXC0G-OVMhMjwj.AR'n(dtA+L3J\:23rT08
     A107B9F  C2018 07 120Dt=M*j15mwhTX]4:!/[`[Heqcw+5a)cY0m#%ls[j5y#=2xaHGsdT08
     A107B9F  C2018 07 12WXS?a=xLd!RiHL$8Bm:Aq1u)06+1%Ot](9yEkKdF#Sn)X`KKUFvfT08
     A107B9F  C2018 07 12BZP2e;ODj#\sp[ra`\a=j0GJL'YM$FI^P[#ldH6g*/]?\x%:BbJCT08
     A107B9F  C2018 07 12dNJF.wJ.b^[e*FgAgq*Kjf#o+=lGAi2p9XXj\fjDJc/QPmZrGGvpT08
     A107B9F  C2018 07 12,mbSi,?9yQqj3]41anOptZB6[:]\jTh^puMofF7F4t4y5)N,W.`yT08
     A107B9F  C2018 07 12yA:\W*6yB-uIcji?je$TTXj],Pno6nn2bPiFAii(8Eb(eRbP1=*iT08
     A107B9F  C2018 07 12-AO76DM^l9Fw)lL5j(ERd0^L;oiy^PA4g12oI%.ok;t=Qta3s9w*474
     A107B9F  C2018 07 12xIyGmx,Cste*,4Sevgh;_I5G\/:Ym8\l`OjFMd@lHVl23D*O*S+i474
     A107B9F  C2018 07 12'EN89@RheRo)La+RA;xxNfBX;f31/o12C#KdUm)-c2Y$qe3dxaPt474
     A107B9F  C2018 07 12sE!_2fo'Q[KT`icSrJp^]O/IOBg']q!1pVp(C?0NT5):$FHPqhTG474
     A107B9F KC2018 07 12wWvtD#1oYBe5mHXf2aAGj5%j]/aVQ#(MTr14Aj0-#U8jAy1hCFG4R58
     A107B9F KC2018 07 12^VO:aEqisKFk]42'DsaH(8IS#kQ#8?aHnU/:My3REXiYDqWX%2qJE23
     A107B9F KC2018 07 12@NoqR.6mV*#@x*s1\iLQhw.,/h`B_db4Z3@h#gx-jr,tkq1/;]:)R58
     A107B9F KC2018 07 12ZIii7OeP:'tn8qn%JgeyX\0BQG\Z[_I$PyD'mKEg@^]kQpB5AwL+E23
     A107B9F KC2018 07 12?#RU^g;alk`6rS;rt50W'(/QJ'Al$mQwJ^SbKHJq90af#8llHJMPE23
     A107B9F  C2018 07 123%:FsmxJq\WZa%*Ysredacted;n@_fwwYDy]q)pP)dP*7w\bor?OL29
     A107B9F  C2018 07 12YyYlr'gWnd.Mba0ZjZdsx;W689Ra1K6EJI7BQ$SyC;L+6?lJ*@ywL29
     A107B9F  C2018 07 1287kDSVpi!@mm=xqpw:fIh9?[cIU?RXnwVGTLj/G]d[N4XB[BCtbXL29
     A107B9F  C2018 07 127e3Wh?i\=y]KLMZM177Fe%%-Z:*#il5Z1HkSg4i*4L/`Tj3e[$eFL29
     A107B9F  C2018 07 12]D-=_7tN]/bI1TyhF]Lm7OEr-1rkUYbnq7v._W294e[ZH^`og,*fL29
     A107B9F  C2018 07 12X7Q*(-dEU5\RC\7!n*5YeI\#/Q$P8b=JyHU\Us'e.==+y.,Hlu[WL29
     A107B9F  C2018 07 12Dq5.#m^;UUeT$tj3GKxUhoaB#GjoC%'AQpOTchoC4L!c=i0hg@W7L29
     A107B9F  C2018 07 12[Sn(w%EGSov-XdVvbEc.?Rbt8s1sLYIw[%v(3k%@ICQy+vI*uU])L29
     A107B9F  C2018 07 12;0nh\Nj_KeH.x9gr=1#pyrs]nO`+XUMCR!hlLnWN/hD[+U_!%^NyL29
     A107B9F  C2018 07 12BBN\'`7w34*hvop-CM1qwp\L+A^=vfy#MjU:$_][5RQBuX^a)51cL29
     A107B9F  C2018 07 12L]IG]-dYt=7!-F;e_xFt*RdTAnCRWo6MhZ-bwxc^DXJ)1p#;sug'L29
     A107B9F  C2018 07 12[$Ilt_Mj2;KsWHqta;R1x=[U38N.%/%:4N,b33,yNWM_ZDYA:f,lL29
     A107B9F  C2018 07 12)AHYv%^`*RN29jyLvxUTK:hJtc`o0CjX`J/?bI#;w5Tg4Z=f5K8PX74
     A107B9F  C2018 07 129J40KDSpWmt@f\iiQf$_-8@$%UPq+ig/F!sKy'uVtov;,?*]_cwlX74
     A107B9F  C2018 07 12U=q4L!+2DLAj';p'Bk7p;heG-p^m3[9hRd#%ebk0ifTp'$w#p5N1X74
     A107B9F  C2018 07 13Wm2d=p1PRK?*ivcU^T?MAsxxuZHdb3AUE`s;q#GvB,frou1$:8ygY00
     A107B9F  C2018 07 136U?25APQTLaSf4I77p44T,LO=PCVOdl*see*XtKc%Z5f3U6l8-ZcY00
     A107B9F #C2018 07 13425=P?:`n%RS/e'4N,n=M\r'rd?YEyw322QRkJ.-Ys4H!uHRjO%UW88
     A107B9F #C2018 07 13I8TH5A4HLPTrRTBaV4P$6%tT'MEW,TZDb\4)q60Gj(TxJ;nOE*e$W88
     A107B9F KC2018 07 13%t,,s=lMwji3$L*:\,^d`75!+o**J/YDo?=21D/!gBZ9'Nv3g`sXE23
     A107B9F KC2018 07 13ON=EXHy\1XZwwlbuUcbQwXLRE98qhF4g%6f;!DB[usM]I\14xgl$E23
     A107B9F KC2018 07 13?8=20hTWA6m-QH+M*G1=Jn=[(o#Nsvfj.QXb.5)x\j)*uW4!Xr(nE23
     A107B9F KC2018 07 13j=P_t$3qEWYv6B^%%\aJeEEvZ!T4s6(c.X#(\jy'GYW]U;4QW^q#E23
     A107B9F  C2018 07 13^m7_K2lSveS)!C\)jo:(JVD9-Vw$Y5Lpt(A-tN]u9jX:3:wW08_4X74
     A107B9F  C2018 07 13H^MUn%4M::wiBPpFgk_WISj+!(C;kSDGIht=\q`$i6u5#@N4D[XfX74
     A107B9F  C2018 07 13ZDcu`.N*/u-QI%4telcVAR3bH`aZ(:Fki`qEcFRno1(iQO,ap^t2X74
     A107B9F |C2018 07 13vrWNbKtS;5-fZJ3f?\x!OP26!Kd3ia`Irh1w=?8RLY2wlxp(vq.%807
     A107B9F |C2018 07 13uo#FZjiu*9Gs$D6C7hppGR=DOhS.j($G(88q3vd4oiX_2oM\?'][807
     A107B9F |C2018 07 13ZTcC3K3oO[wAMH.I3B?VUXBJ,YDg%!q_:Lj'usr;iu#m.Ff!D`%P807
     A107B9F KC2018 07 14sIr6)MaBlUI6\D/S=$Bl(5(!r)F2bP,fBoP]kv8:2N_u'VT$H6mIR58
     A107B9F KC2018 07 14N!o`=yl)VhR,KD(=^nlwiM-CQ/3EeQH9,qJpl-[`2`*n$BJt,w')R58
     A107B9F  C2018 07 15)7=(VHPp/Gp3q@xwd8d3-Of'5=bsSj(0lX!YPhQl/)jim(TZx;0BX74
     A107B9F  C2018 07 15y5^r68bUQ(0dXy;JbxnQFP+(jFBj6[bLM%jO4u1D`iCUm_T7Fv)wX74
     A107B9F  C2018 07 15q)s;?T#k'\60p1A;qd8'Xx[Ni[Ne;Wbfa6'D_rLAb\8sX-ENEOCPX74

Station data:
(474) Mount John Observatory, Lake Tekapo  (S43.987388 E170.464960)  New
   Zealand.  Observers A. C. Gilmore, P. M. Kilmartin. Measurer P. M.
   Kilmartin. 1.0-m f/7.7 reflector + CCD.
(807) Cerro Tololo Observatory, La Serena  (S30.169136 W70.805900)  Chile.
   1.5-m Ritchey-Chrétien.
(E23) Arcadia  (S33.621199 E151.071190)  Australia/NSW.
(L29) Unknown Station Code.
(R58) Beverly-Begg Observatory, Dunedin  (S45.864384 E170.490390)  New
   Zealand.
(T08) ATLAS-MLO, Mauna Loa  (N19.535772 W155.576400)  US/Hawaii.
(W88) Slooh.com Chile Observatory, La Dehesa  (S33.269128 W70.534300)  Chile.
   0.35-m f/11 Schmidt-Cassegrain + CCD.
(X74) Observatório Campo dos Amarais  (S21.661263 W50.849400)  Brazil.
(Y00) SONEAR Observatory, Oliveira  (S20.715082 W44.784960)  Brazil.
   Observers C. Jacques, E. Pimentel, J. Barros. Measurer C. Jacques. 0.28-m
   f/2.2 astrograph + CCD.

Orbital elements:  A107B9F
   Perihelion 2018 Jul 10.640660 +/- 0.0798 TT = 15:22:33 (JD 2458310.140660)
Epoch 2018 Jul 16.0 TT = JDT 2458315.5   Earth MOID: 0.1542   Ju: 0.8575
M   1.10709 +/- 0.06                (J2000 ecliptic)          AutoNEOCP
n   0.20657351 +/- 0.0092           Peri.  340.38304 +/- 0.053
a   2.83412902 +/- 0.0842           Node   291.06436 +/- 0.12
e   0.5941576 +/- 0.0115            Incl.   29.63230 +/- 0.21
P   4.77                   H 18.2   G  0.15   U  9.6  
q 1.15020953 +/- 0.00168    Q 4.51804852 +/- 0.175
39 of 51 observations 2018 July 12-16; mean residual 0".30
Residuals in arcseconds: 
180712 T08  .12-  .02+    180712 L29(15.2- 10.9-)   180713 W88  .56-  .35+    
180712 T08  .04+  .06+    180712 L29(15.8- 11.3-)   180713 W88  .23-  .27+    
180712 T08  .70-  .71-    180712 L29(15.9- 11.4-)   180713 E23  .22-  .05+    
180712 T08  .27-  .38+    180712 L29(25.6-  6.5-)   180713 E23  .21+  .31+    
180712 T08  .11-  .05-    180712 L29(25.9-  6.1-)   180713 E23  .07+  .08+    
180712 T08  .35-  .47-    180712 L29(26.1-  6.1-)   180713 E23  .03+  .35+    
180712 T08  .20+  .16-    180712 L29(25.9-  6.5-)   180713 X74  .01-  .23-    
180712 T08  .24-  .20-    180712 L29(26.1-  6.1-)   180713 X74  .51-  .53-    
180712 474  .27-  .14+    180712 L29(26.0-  6.1-)   180713 X74  .22-  .39-    
180712 474  .14-  .23+    180712 L29(26.2-  6.1-)   180713 807  .08-  .03-    
180712 474  .07-  .18+    180712 L29(26.1-  6.0-)   180713 807  .09-  .08-    
180712 474  .01-  .24+    180712 L29(26.4-  5.9-)   180713 807  .17-  .05-    
180712 R58  .22-  .12+    180712 X74  .25-  .42-    180714 R58  .14-  .23+    
180712 E23  .10-  .48+    180712 X74  .36-  .31-    180714 R58  .10-  .21+    
180712 R58  .35+  .16+    180712 X74  .81+  .34-    180715 X74  .22-  .10-    
180712 E23  .19-  .28+    180713 Y00  .36-  .12+    180715 X74  .09+  .07-    
180712 E23  .05+  .27+    180713 Y00  .82+  .26-    180715 X74  .18+  .38+    

Ephemerides (geocentric):
Date (UTC) HH   RA              Dec         delta   r     elong  mag " sig PA
---- -- -- --  -------------   -----------  ------ ------ -----  --- ---- ---
2018 07 16 02  13 54 59.871   -38 21 13.21  .33187 1.1522 105.8 18.3  .12  66
2018 07 16 03  13 55 20.130   -38 18 22.16  .33178 1.1522 105.9 18.3  .12  66
2018 07 16 04  13 55 40.381   -38 15 30.84  .33170 1.1522 105.9 18.3  .12  66
2018 07 16 05  13 56 00.623   -38 12 39.23  .33161 1.1523 105.9 18.3  .13  66
2018 07 16 06  13 56 20.857   -38 09 47.34  .33153 1.1523 105.9 18.2  .13  65
2018 07 16 07  13 56 41.083   -38 06 55.17  .33144 1.1523 105.9 18.2  .13  65
2018 07 16 08  13 57 01.300   -38 04 02.73  .33136 1.1524 105.9 18.2  .14  65
2018 07 16 09  13 57 21.508   -38 01 10.01  .33128 1.1524 106.0 18.2  .14  65
2018 07 16 10  13 57 41.707   -37 58 17.01  .33120 1.1524 106.0 18.2  .14  65
2018 07 16 11  13 58 01.898   -37 55 23.74  .33112 1.1525 106.0 18.2  .15  64
2018 07 16 12  13 58 22.080   -37 52 30.19  .33104 1.1525 106.0 18.2  .15  64
2018 07 16 13  13 58 42.253   -37 49 36.37  .33096 1.1525 106.0 18.2  .16  64
2018 07 16 14  13 59 02.416   -37 46 42.27  .33088 1.1526 106.0 18.2  .16  64
2018 07 16 15  13 59 22.571   -37 43 47.91  .33080 1.1526 106.1 18.2  .16  64
2018 07 16 16  13 59 42.717   -37 40 53.27  .33072 1.1526 106.1 18.2  .17  64
2018 07 16 17  14 00 02.853   -37 37 58.36  .33064 1.1527 106.1 18.2  .17  64
2018 07 16 18  14 00 22.981   -37 35 03.18  .33057 1.1527 106.1 18.2  .18  63
2018 07 16 19  14 00 43.099   -37 32 07.73  .33049 1.1527 106.1 18.2  .18  63
2018 07 16 20  14 01 03.207   -37 29 12.01  .33042 1.1528 106.1 18.2  .19  63
2018 07 16 21  14 01 23.306   -37 26 16.02  .33034 1.1528 106.1 18.2  .19  63
2018 07 16 22  14 01 43.396   -37 23 19.77  .33027 1.1528 106.2 18.2  .20  63
2018 07 16 23  14 02 03.476   -37 20 23.25  .33019 1.1529 106.2 18.2  .20  63
2018 07 17 00  14 02 23.547   -37 17 26.46  .33012 1.1529 106.2 18.2  .21  63
2018 07 17 01  14 02 43.608   -37 14 29.42  .33005 1.1529 106.2 18.2  .21  63
2018 07 17 02  14 03 03.659   -37 11 32.10  .32998 1.1530 106.2 18.2  .22  62
2018 07 17 03  14 03 23.700   -37 08 34.53  .32990 1.1530 106.2 18.2  .23  62
2018 07 17 04  14 03 43.731   -37 05 36.69  .32983 1.1530 106.3 18.2  .23  62
2018 07 17 05  14 04 03.753   -37 02 38.59  .32976 1.1531 106.3 18.2  .24  62
2018 07 17 06  14 04 23.765   -36 59 40.23  .32970 1.1531 106.3 18.2  .24  62
2018 07 17 07  14 04 43.766   -36 56 41.61  .32963 1.1531 106.3 18.2  .25  62
2018 07 17 08  14 05 03.758   -36 53 42.73  .32956 1.1532 106.3 18.2  .26  62
2018 07 17 09  14 05 23.739   -36 50 43.60  .32949 1.1532 106.3 18.2  .26  62
2018 07 17 10  14 05 43.710   -36 47 44.20  .32942 1.1533 106.3 18.2  .27  62
2018 07 17 11  14 06 03.671   -36 44 44.56  .32936 1.1533 106.4 18.2  .28  61
2018 07 17 12  14 06 23.622   -36 41 44.65  .32929 1.1533 106.4 18.2  .29  61
2018 07 17 13  14 06 43.562   -36 38 44.49  .32923 1.1534 106.4 18.2  .29  61
2018 07 17 14  14 07 03.492   -36 35 44.08  .32916 1.1534 106.4 18.2  .30  61
2018 07 17 15  14 07 23.411   -36 32 43.42  .32910 1.1534 106.4 18.2  .31  61
2018 07 17 16  14 07 43.320   -36 29 42.50  .32904 1.1535 106.4 18.2  .32  61
2018 07 17 17  14 08 03.218   -36 26 41.33  .32898 1.1535 106.5 18.2  .32  61
2018 07 17 18  14 08 23.105   -36 23 39.92  .32891 1.1536 106.5 18.2  .33  61
2018 07 17 19  14 08 42.982   -36 20 38.25  .32885 1.1536 106.5 18.2  .34  61
2018 07 17 20  14 09 02.848   -36 17 36.34  .32879 1.1536 106.5 18.2  .35  61
2018 07 17 21  14 09 22.703   -36 14 34.18  .32873 1.1537 106.5 18.2  .36  61
2018 07 17 22  14 09 42.547   -36 11 31.77  .32867 1.1537 106.5 18.2  .36  61
2018 07 17 23  14 10 02.380   -36 08 29.12  .32862 1.1538 106.5 18.2  .37  60
2018 07 18 00  14 10 22.203   -36 05 26.22  .32856 1.1538 106.6 18.2  .38  60
2018 07 18 01  14 10 42.014   -36 02 23.08  .32850 1.1538 106.6 18.2  .39  60